FLOCK 3P-4 (41965 NORAD) Tracking and Keplerian Element Data

This shows tracking and keplerian element data for the satellite.

Feedback or suggestion? Click here.




ElementValue
Catalog41965
NameFLOCK 3P-4
Epoch Orbit32119
Epoch Day325.15437117
Epoch Year2022
RAAN31.3363
Inclination97.2532
Eccentricity0.000346
Argument of Perigee7.8214
Mean Anonmoly352.3098
Mean Motion15.61937743
Decay Rate0.0017875
L11 41965U 17008T 22325.15437117 .00178750 00000+0 20148-2 0 9998
L22 41965 97.2532 31.3363 0003460 7.8214 352.3098 15.61937743321191



Live tracking and technical data element details for FLOCK 3P-4 (NORAD 41965). FLOCK 3P-4 can be tracked NOW for your location showing map with azimuth and elevation plus other details from your city location.







IsCatalogInMostPopularTable: catalog: 41965, numindb: 589
Update: records affected: 1



GetName: 41965 FLOCK 3P-4

Hit Count: updated at: Thu, 15 May 2025 10:59:10 GMT